owner,sensor,date,latitude,longitude,air_temperature,qcFlag 
DISL,ioos:station:DISL:PPTA:1,2013-02-01T00:00:00Z,30.2791,-87.5561,11.91,1111122 
DISL,ioos:station:DISL:PPTA:1,2013-02-01T00:30:00Z,30.2791,-87.5561,10.85,1111122 
DISL,ioos:station:DISL:PPTA:1,2013-02-01T01:00:00Z,30.2791,-87.5561,11.03,1111122 
DISL,ioos:station:DISL:PPTA:1,2013-02-01T01:30:00Z,30.2791,-87.5561,10.73,1111122 
DISL,ioos:station:DISL:PPTA:1,2013-02-01T02:00:00Z,30.2791,-87.5561,10.39,1111122 
DISL,ioos:station:DISL:PPTA:1,2013-02-01T02:30:00Z,30.2791,-87.5561,10.63,1111122 
DISL,ioos:station:DISL:PPTA:1,2013-02-01T03:00:00Z,30.2791,-87.5561,10.91,1111122 
DISL,ioos:station:DISL:PPTA:1,2013-02-01T03:30:00Z,30.2791,-87.5561,10.98,1111122 
DISL,ioos:station:DISL:PPTA:1,2013-02-01T04:00:00Z,30.2791,-87.5561,11.15,1111122 
DISL,ioos:station:DISL:PPTA:1,2013-02-01T04:30:00Z,30.2791,-87.5561,10.7,1111122 
DISL,ioos:station:DISL:PPTA:1,2013-02-01T05:00:00Z,30.2791,-87.5561,11.32,1111122 
DISL,ioos:station:DISL:PPTA:1,2013-02-01T05:30:00Z,30.2791,-87.5561,11.39,1111122 
DISL,ioos:station:DISL:PPTA:1,2013-02-01T06:00:00Z,30.2791,-87.5561,11.29,1111122 
DISL,ioos:station:DISL:PPTA:1,2013-02-01T06:30:00Z,30.2791,-87.5561,11.29,1111122 
DISL,ioos:station:DISL:PPTA:1,2013-02-01T07:00:00Z,30.2791,-87.5561,11.15,1111122 
DISL,ioos:station:DISL:PPTA:1,2013-02-01T07:30:00Z,30.2791,-87.5561,11.42,1111122 
DISL,ioos:station:DISL:PPTA:1,2013-02-01T08:00:00Z,30.2791,-87.5561,11.41,1111122 
DISL,ioos:station:DISL:PPTA:1,2013-02-01T08:30:00Z,30.2791,-87.5561,11.07,1111122 
DISL,ioos:station:DISL:PPTA:1,2013-02-01T09:00:00Z,30.2791,-87.5561,10.9,1111122 
DISL,ioos:station:DISL:PPTA:1,2013-02-01T09:30:00Z,30.2791,-87.5561,10.62,1111122 
DISL,ioos:station:DISL:PPTA:1,2013-02-01T10:00:00Z,30.2791,-87.5561,10.45,1111122 
DISL,ioos:station:DISL:PPTA:1,2013-02-01T10:30:00Z,30.2791,-87.5561,10.18,1111122 
DISL,ioos:station:DISL:PPTA:1,2013-02-01T11:00:00Z,30.2791,-87.5561,10.11,1111122 
DISL,ioos:station:DISL:PPTA:1,2013-02-01T11:30:00Z,30.2791,-87.5561,10.11,1111122 
DISL,ioos:station:DISL:PPTA:1,2013-02-01T12:00:00Z,30.2791,-87.5561,9.74,1111122 
DISL,ioos:station:DISL:PPTA:1,2013-02-01T12:30:00Z,30.2791,-87.5561,10.08,1111122 
DISL,ioos:station:DISL:PPTA:1,2013-02-01T13:00:00Z,30.2791,-87.5561,9.94,1111122 
DISL,ioos:station:DISL:PPTA:1,2013-02-01T13:30:00Z,30.2791,-87.5561,10.35,1111122 
DISL,ioos:station:DISL:PPTA:1,2013-02-01T14:00:00Z,30.2791,-87.5561,10.25,1111122 
DISL,ioos:station:DISL:PPTA:1,2013-02-01T14:30:00Z,30.2791,-87.5561,10.32,1111122 
DISL,ioos:station:DISL:PPTA:1,2013-02-01T15:00:00Z,30.2791,-87.5561,10.27,1111122 
DISL,ioos:station:DISL:PPTA:1,2013-02-01T15:30:00Z,30.2791,-87.5561,10.31,1111122 
DISL,ioos:station:DISL:PPTA:1,2013-02-01T16:00:00Z,30.2791,-87.5561,10.62,1111122 
DISL,ioos:station:DISL:PPTA:1,2013-02-01T16:30:00Z,30.2791,-87.5561,10.51,1111122 
DISL,ioos:station:DISL:PPTA:1,2013-02-01T17:00:00Z,30.2791,-87.5561,10.89,1111122 
DISL,ioos:station:DISL:PPTA:1,2013-02-01T17:30:00Z,30.2791,-87.5561,11.16,1111122 
DISL,ioos:station:DISL:PPTA:1,2013-02-01T18:00:00Z,30.2791,-87.5561,11.97,1111122 
DISL,ioos:station:DISL:PPTA:1,2013-02-01T18:30:00Z,30.2791,-87.5561,13.36,1111122 
DISL,ioos:station:DISL:PPTA:1,2013-02-01T19:00:00Z,30.2791,-87.5561,13.93,1111122 
DISL,ioos:station:DISL:PPTA:1,2013-02-01T19:30:00Z,30.2791,-87.5561,14.68,1111122 
DISL,ioos:station:DISL:PPTA:1,2013-02-01T20:00:00Z,30.2791,-87.5561,15.08,1111122 
DISL,ioos:station:DISL:PPTA:1,2013-02-01T20:30:00Z,30.2791,-87.5561,15.88,1111122 
DISL,ioos:station:DISL:PPTA:1,2013-02-01T21:00:00Z,30.2791,-87.5561,16.25,1111122 
DISL,ioos:station:DISL:PPTA:1,2013-02-01T21:30:00Z,30.2791,-87.5561,16.28,1111122 
DISL,ioos:station:DISL:PPTA:1,2013-02-01T22:00:00Z,30.2791,-87.5561,16.28,1111122 
DISL,ioos:station:DISL:PPTA:1,2013-02-01T22:30:00Z,30.2791,-87.5561,16.14,1111122 
DISL,ioos:station:DISL:PPTA:1,2013-02-01T23:00:00Z,30.2791,-87.5561,15.77,1111122 
DISL,ioos:station:DISL:PPTA:1,2013-02-01T23:30:00Z,30.2791,-87.5561,14.82,1111122 
DISL,ioos:station:DISL:PPTA:1,2013-02-02T00:00:00Z,30.2791,-87.5561,14.17,1111122 
DISL,ioos:station:DISL:PPTA:1,2013-02-02T00:30:00Z,30.2791,-87.5561,13.46,1111122 
DISL,ioos:station:DISL:PPTA:1,2013-02-02T01:00:00Z,30.2791,-87.5561,12.85,1111122 
DISL,ioos:station:DISL:PPTA:1,2013-02-02T01:30:00Z,30.2791,-87.5561,12.27,1111122 
DISL,ioos:station:DISL:PPTA:1,2013-02-02T02:00:00Z,30.2791,-87.5561,11.46,1111122 
DISL,ioos:station:DISL:PPTA:1,2013-02-02T02:30:00Z,30.2791,-87.5561,11.06,1111122 
DISL,ioos:station:DISL:PPTA:1,2013-02-02T03:00:00Z,30.2791,-87.5561,10.65,1111122 
DISL,ioos:station:DISL:PPTA:1,2013-02-02T03:30:00Z,30.2791,-87.5561,10.21,1111122 
DISL,ioos:station:DISL:PPTA:1,2013-02-02T04:00:00Z,30.2791,-87.5561,9.8,1111122 
DISL,ioos:station:DISL:PPTA:1,2013-02-02T04:30:00Z,30.2791,-87.5561,9.56,1111122 
DISL,ioos:station:DISL:PPTA:1,2013-02-02T05:00:00Z,30.2791,-87.5561,9.26,1111122 
DISL,ioos:station:DISL:PPTA:1,2013-02-02T05:30:00Z,30.2791,-87.5561,7.862,1111122 
DISL,ioos:station:DISL:PPTA:1,2013-02-02T06:00:00Z,30.2791,-87.5561,7.357,1111122 
DISL,ioos:station:DISL:PPTA:1,2013-02-02T06:30:00Z,30.2791,-87.5561,7.362,1111122 
DISL,ioos:station:DISL:PPTA:1,2013-02-02T07:00:00Z,30.2791,-87.5561,6.954,1111122 
DISL,ioos:station:DISL:PPTA:1,2013-02-02T07:30:00Z,30.2791,-87.5561,6.817,1111122 
DISL,ioos:station:DISL:PPTA:1,2013-02-02T08:00:00Z,30.2791,-87.5561,6.479,1111122 
DISL,ioos:station:DISL:PPTA:1,2013-02-02T08:30:00Z,30.2791,-87.5561,6.517,1111122 
DISL,ioos:station:DISL:PPTA:1,2013-02-02T09:00:00Z,30.2791,-87.5561,6.723,1111122 
DISL,ioos:station:DISL:PPTA:1,2013-02-02T09:30:00Z,30.2791,-87.5561,6.209,1111122 
DISL,ioos:station:DISL:PPTA:1,2013-02-02T10:00:00Z,30.2791,-87.5561,5.833,1111122 
DISL,ioos:station:DISL:PPTA:1,2013-02-02T10:30:00Z,30.2791,-87.5561,6.966,1111122 
DISL,ioos:station:DISL:PPTA:1,2013-02-02T11:00:00Z,30.2791,-87.5561,6.483,1111122 
DISL,ioos:station:DISL:PPTA:1,2013-02-02T11:30:00Z,30.2791,-87.5561,6.757,1111122 
DISL,ioos:station:DISL:PPTA:1,2013-02-02T12:00:00Z,30.2791,-87.5561,5.353,1111122 
DISL,ioos:station:DISL:PPTA:1,2013-02-02T12:30:00Z,30.2791,-87.5561,6.623,1111122 
DISL,ioos:station:DISL:PPTA:1,2013-02-02T13:00:00Z,30.2791,-87.5561,7.07,1111122 
DISL,ioos:station:DISL:PPTA:1,2013-02-02T13:30:00Z,30.2791,-87.5561,5.834,1111122 
DISL,ioos:station:DISL:PPTA:1,2013-02-02T14:00:00Z,30.2791,-87.5561,6.617,1111122 
DISL,ioos:station:DISL:PPTA:1,2013-02-02T14:30:00Z,30.2791,-87.5561,9.1,1111122 
DISL,ioos:station:DISL:PPTA:1,2013-02-02T15:00:00Z,30.2791,-87.5561,9.29,1111122 
DISL,ioos:station:DISL:PPTA:1,2013-02-02T15:30:00Z,30.2791,-87.5561,10.1,1111122 
DISL,ioos:station:DISL:PPTA:1,2013-02-02T16:00:00Z,30.2791,-87.5561,11.96,1111122 
DISL,ioos:station:DISL:PPTA:1,2013-02-02T16:30:00Z,30.2791,-87.5561,12.6,1111122 
DISL,ioos:station:DISL:PPTA:1,2013-02-02T17:00:00Z,30.2791,-87.5561,13.54,1111122 
DISL,ioos:station:DISL:PPTA:1,2013-02-02T17:30:00Z,30.2791,-87.5561,14.18,1111122 
DISL,ioos:station:DISL:PPTA:1,2013-02-02T18:00:00Z,30.2791,-87.5561,14.34,1111122 
DISL,ioos:station:DISL:PPTA:1,2013-02-02T18:30:00Z,30.2791,-87.5561,14.95,1111122 
DISL,ioos:station:DISL:PPTA:1,2013-02-02T19:00:00Z,30.2791,-87.5561,15.46,1111122 
DISL,ioos:station:DISL:PPTA:1,2013-02-02T19:30:00Z,30.2791,-87.5561,15.09,1111122 
DISL,ioos:station:DISL:PPTA:1,2013-02-02T20:00:00Z,30.2791,-87.5561,15.33,1111122 
DISL,ioos:station:DISL:PPTA:1,2013-02-02T20:30:00Z,30.2791,-87.5561,15.72,1111122 
DISL,ioos:station:DISL:PPTA:1,2013-02-02T21:00:00Z,30.2791,-87.5561,16.3,1111122 
DISL,ioos:station:DISL:PPTA:1,2013-02-02T21:30:00Z,30.2791,-87.5561,16.34,1111122 
DISL,ioos:station:DISL:PPTA:1,2013-02-02T22:00:00Z,30.2791,-87.5561,16.62,1111122 
DISL,ioos:station:DISL:PPTA:1,2013-02-02T22:30:00Z,30.2791,-87.5561,16.45,1111122 
DISL,ioos:station:DISL:PPTA:1,2013-02-02T23:00:00Z,30.2791,-87.5561,15.94,1111122 
DISL,ioos:station:DISL:PPTA:1,2013-02-02T23:30:00Z,30.2791,-87.5561,15.63,1111122 
DISL,ioos:station:DISL:PPTA:1,2013-02-03T00:00:00Z,30.2791,-87.5561,15.67,1111122 
DISL,ioos:station:DISL:PPTA:1,2013-02-03T00:30:00Z,30.2791,-87.5561,15.5,1111122 
DISL,ioos:station:DISL:PPTA:1,2013-02-03T01:00:00Z,30.2791,-87.5561,15.47,1111122 
DISL,ioos:station:DISL:PPTA:1,2013-02-03T01:30:00Z,30.2791,-87.5561,15.44,1111122 
DISL,ioos:station:DISL:PPTA:1,2013-02-03T02:00:00Z,30.2791,-87.5561,14.38,1111122 
DISL,ioos:station:DISL:PPTA:1,2013-02-03T02:30:00Z,30.2791,-87.5561,14.91,1111122 
DISL,ioos:station:DISL:PPTA:1,2013-02-03T03:00:00Z,30.2791,-87.5561,15.52,1111122 
DISL,ioos:station:DISL:PPTA:1,2013-02-03T03:30:00Z,30.2791,-87.5561,15.69,1111122 
DISL,ioos:station:DISL:PPTA:1,2013-02-03T04:00:00Z,30.2791,-87.5561,15.56,1111122 
DISL,ioos:station:DISL:PPTA:1,2013-02-03T04:30:00Z,30.2791,-87.5561,15.83,1111122 
DISL,ioos:station:DISL:PPTA:1,2013-02-03T05:00:00Z,30.2791,-87.5561,16.07,1111122 
DISL,ioos:station:DISL:PPTA:1,2013-02-03T05:30:00Z,30.2791,-87.5561,16.03,1111122 
DISL,ioos:station:DISL:PPTA:1,2013-02-03T06:00:00Z,30.2791,-87.5561,16.06,1111122 
DISL,ioos:station:DISL:PPTA:1,2013-02-03T06:30:00Z,30.2791,-87.5561,16.02,1111122 
DISL,ioos:station:DISL:PPTA:1,2013-02-03T07:00:00Z,30.2791,-87.5561,15.61,1111122 
DISL,ioos:station:DISL:PPTA:1,2013-02-03T07:30:00Z,30.2791,-87.5561,15.37,1111122 
DISL,ioos:station:DISL:PPTA:1,2013-02-03T08:00:00Z,30.2791,-87.5561,14.99,1111122 
DISL,ioos:station:DISL:PPTA:1,2013-02-03T08:30:00Z,30.2791,-87.5561,13.11,1111122 
DISL,ioos:station:DISL:PPTA:1,2013-02-03T09:00:00Z,30.2791,-87.5561,12.88,1111122 
DISL,ioos:station:DISL:PPTA:1,2013-02-03T09:30:00Z,30.2791,-87.5561,12.72,1111122 
DISL,ioos:station:DISL:PPTA:1,2013-02-03T10:00:00Z,30.2791,-87.5561,12.41,1111122 
DISL,ioos:station:DISL:PPTA:1,2013-02-03T10:30:00Z,30.2791,-87.5561,11.86,1111122 
DISL,ioos:station:DISL:PPTA:1,2013-02-03T11:00:00Z,30.2791,-87.5561,11.43,1111122 
DISL,ioos:station:DISL:PPTA:1,2013-02-03T11:30:00Z,30.2791,-87.5561,11.23,1111122 
DISL,ioos:station:DISL:PPTA:1,2013-02-03T12:00:00Z,30.2791,-87.5561,10.79,1111122 
DISL,ioos:station:DISL:PPTA:1,2013-02-03T12:30:00Z,30.2791,-87.5561,10.48,1111122 
DISL,ioos:station:DISL:PPTA:1,2013-02-03T13:00:00Z,30.2791,-87.5561,9.97,1111122 
DISL,ioos:station:DISL:PPTA:1,2013-02-03T13:30:00Z,30.2791,-87.5561,9.94,1111122 
DISL,ioos:station:DISL:PPTA:1,2013-02-03T14:00:00Z,30.2791,-87.5561,10.21,1111122 
DISL,ioos:station:DISL:PPTA:1,2013-02-03T14:30:00Z,30.2791,-87.5561,10.99,1111122 
DISL,ioos:station:DISL:PPTA:1,2013-02-03T15:00:00Z,30.2791,-87.5561,11.97,1111122 
DISL,ioos:station:DISL:PPTA:1,2013-02-03T15:30:00Z,30.2791,-87.5561,13.25,1111122 
DISL,ioos:station:DISL:PPTA:1,2013-02-03T16:00:00Z,30.2791,-87.5561,13.4,1111122 
DISL,ioos:station:DISL:PPTA:1,2013-02-03T16:30:00Z,30.2791,-87.5561,14.1,1111122 
DISL,ioos:station:DISL:PPTA:1,2013-02-03T17:00:00Z,30.2791,-87.5561,15.35,1111122 
DISL,ioos:station:DISL:PPTA:1,2013-02-03T17:30:00Z,30.2791,-87.5561,16.18,1111122 
DISL,ioos:station:DISL:PPTA:1,2013-02-03T18:00:00Z,30.2791,-87.5561,15.9,1111122 
DISL,ioos:station:DISL:PPTA:1,2013-02-03T18:30:00Z,30.2791,-87.5561,15.84,1111122 
DISL,ioos:station:DISL:PPTA:1,2013-02-03T19:00:00Z,30.2791,-87.5561,16.28,1111122 
DISL,ioos:station:DISL:PPTA:1,2013-02-03T19:30:00Z,30.2791,-87.5561,16.6,1111122 
DISL,ioos:station:DISL:PPTA:1,2013-02-03T20:00:00Z,30.2791,-87.5561,17.73,1111122 
DISL,ioos:station:DISL:PPTA:1,2013-02-03T20:30:00Z,30.2791,-87.5561,18.09,1111122 
DISL,ioos:station:DISL:PPTA:1,2013-02-03T21:00:00Z,30.2791,-87.5561,17.24,1111122 
DISL,ioos:station:DISL:PPTA:1,2013-02-03T21:30:00Z,30.2791,-87.5561,16.8,1111122 
DISL,ioos:station:DISL:PPTA:1,2013-02-03T22:00:00Z,30.2791,-87.5561,16.33,1111122 
DISL,ioos:station:DISL:PPTA:1,2013-02-03T22:30:00Z,30.2791,-87.5561,15.86,1111122 
DISL,ioos:station:DISL:PPTA:1,2013-02-03T23:00:00Z,30.2791,-87.5561,15.49,1111122 
DISL,ioos:station:DISL:PPTA:1,2013-02-03T23:30:00Z,30.2791,-87.5561,14.92,1111122 
DISL,ioos:station:DISL:PPTA:1,2013-02-04T00:00:00Z,30.2791,-87.5561,14.72,1111122 
DISL,ioos:station:DISL:PPTA:1,2013-02-04T00:30:00Z,30.2791,-87.5561,14.59,1111122 
DISL,ioos:station:DISL:PPTA:1,2013-02-04T01:00:00Z,30.2791,-87.5561,13.64,1111122 
DISL,ioos:station:DISL:PPTA:1,2013-02-04T01:30:00Z,30.2791,-87.5561,13.23,1111122 
DISL,ioos:station:DISL:PPTA:1,2013-02-04T02:00:00Z,30.2791,-87.5561,13.65,1111122 
DISL,ioos:station:DISL:PPTA:1,2013-02-04T02:30:00Z,30.2791,-87.5561,13.45,1111122 
DISL,ioos:station:DISL:PPTA:1,2013-02-04T03:00:00Z,30.2791,-87.5561,13.08,1111122 
DISL,ioos:station:DISL:PPTA:1,2013-02-04T03:30:00Z,30.2791,-87.5561,13.11,1111122 
DISL,ioos:station:DISL:PPTA:1,2013-02-04T04:00:00Z,30.2791,-87.5561,13.18,1111122 
DISL,ioos:station:DISL:PPTA:1,2013-02-04T04:30:00Z,30.2791,-87.5561,12.94,1111122 
DISL,ioos:station:DISL:PPTA:1,2013-02-04T05:00:00Z,30.2791,-87.5561,12.6,1111122 
DISL,ioos:station:DISL:PPTA:1,2013-02-04T05:30:00Z,30.2791,-87.5561,12.39,1111122 
DISL,ioos:station:DISL:PPTA:1,2013-02-04T06:00:00Z,30.2791,-87.5561,12.12,1111122 
DISL,ioos:station:DISL:PPTA:1,2013-02-04T06:30:00Z,30.2791,-87.5561,12.02,1111122 
DISL,ioos:station:DISL:PPTA:1,2013-02-04T07:00:00Z,30.2791,-87.5561,11.68,1111122 
DISL,ioos:station:DISL:PPTA:1,2013-02-04T07:30:00Z,30.2791,-87.5561,11.47,1111122 
DISL,ioos:station:DISL:PPTA:1,2013-02-04T08:00:00Z,30.2791,-87.5561,11.37,1111122 
DISL,ioos:station:DISL:PPTA:1,2013-02-04T08:30:00Z,30.2791,-87.5561,10.99,1111122 
DISL,ioos:station:DISL:PPTA:1,2013-02-04T09:00:00Z,30.2791,-87.5561,10.62,1111122 
DISL,ioos:station:DISL:PPTA:1,2013-02-04T09:30:00Z,30.2791,-87.5561,10.69,1111122 
DISL,ioos:station:DISL:PPTA:1,2013-02-04T10:00:00Z,30.2791,-87.5561,10.86,1111122 
DISL,ioos:station:DISL:PPTA:1,2013-02-04T10:30:00Z,30.2791,-87.5561,10.72,1111122 
DISL,ioos:station:DISL:PPTA:1,2013-02-04T11:00:00Z,30.2791,-87.5561,10.52,1111122 
DISL,ioos:station:DISL:PPTA:1,2013-02-04T11:30:00Z,30.2791,-87.5561,10.49,1111122 
DISL,ioos:station:DISL:PPTA:1,2013-02-04T12:00:00Z,30.2791,-87.5561,11.82,1111122 
DISL,ioos:station:DISL:PPTA:1,2013-02-04T12:30:00Z,30.2791,-87.5561,11.47,1111122 
DISL,ioos:station:DISL:PPTA:1,2013-02-04T13:00:00Z,30.2791,-87.5561,11.57,1111122 
DISL,ioos:station:DISL:PPTA:1,2013-02-04T13:30:00Z,30.2791,-87.5561,11.27,1111122 
DISL,ioos:station:DISL:PPTA:1,2013-02-04T14:00:00Z,30.2791,-87.5561,10.31,1111122 
DISL,ioos:station:DISL:PPTA:1,2013-02-04T14:30:00Z,30.2791,-87.5561,11.64,1111122 
DISL,ioos:station:DISL:PPTA:1,2013-02-04T15:00:00Z,30.2791,-87.5561,11.98,1111122 
DISL,ioos:station:DISL:PPTA:1,2013-02-04T15:30:00Z,30.2791,-87.5561,12.52,1111122 
DISL,ioos:station:DISL:PPTA:1,2013-02-04T16:00:00Z,30.2791,-87.5561,13.09,1111122 
DISL,ioos:station:DISL:PPTA:1,2013-02-04T16:30:00Z,30.2791,-87.5561,13.63,1111122 
DISL,ioos:station:DISL:PPTA:1,2013-02-04T17:00:00Z,30.2791,-87.5561,14.51,1111122 
DISL,ioos:station:DISL:PPTA:1,2013-02-04T17:30:00Z,30.2791,-87.5561,15.49,1111122 
DISL,ioos:station:DISL:PPTA:1,2013-02-04T18:00:00Z,30.2791,-87.5561,15.96,1111122 
DISL,ioos:station:DISL:PPTA:1,2013-02-04T18:30:00Z,30.2791,-87.5561,15.95,1111122 
DISL,ioos:station:DISL:PPTA:1,2013-02-04T19:00:00Z,30.2791,-87.5561,16.08,1111122 
DISL,ioos:station:DISL:PPTA:1,2013-02-04T19:30:00Z,30.2791,-87.5561,16.01,1111122 
DISL,ioos:station:DISL:PPTA:1,2013-02-04T20:00:00Z,30.2791,-87.5561,16.53,1111122 
DISL,ioos:station:DISL:PPTA:1,2013-02-04T20:30:00Z,30.2791,-87.5561,16.87,1111122 
DISL,ioos:station:DISL:PPTA:1,2013-02-04T21:00:00Z,30.2791,-87.5561,17.24,1111122 
DISL,ioos:station:DISL:PPTA:1,2013-02-04T21:30:00Z,30.2791,-87.5561,17.45,1111122 
DISL,ioos:station:DISL:PPTA:1,2013-02-04T22:00:00Z,30.2791,-87.5561,16.87,1111122 
DISL,ioos:station:DISL:PPTA:1,2013-02-04T22:30:00Z,30.2791,-87.5561,16.7,1111122 
DISL,ioos:station:DISL:PPTA:1,2013-02-04T23:00:00Z,30.2791,-87.5561,16.47,1111122 
DISL,ioos:station:DISL:PPTA:1,2013-02-04T23:30:00Z,30.2791,-87.5561,16.47,1111122 
DISL,ioos:station:DISL:PPTA:1,2013-02-05T00:00:00Z,30.2791,-87.5561,16.51,1111122 
DISL,ioos:station:DISL:PPTA:1,2013-02-05T00:30:00Z,30.2791,-87.5561,16.44,1111122 
DISL,ioos:station:DISL:PPTA:1,2013-02-05T01:00:00Z,30.2791,-87.5561,16.65,1111122 
DISL,ioos:station:DISL:PPTA:1,2013-02-05T01:30:00Z,30.2791,-87.5561,16.68,1111122 
DISL,ioos:station:DISL:PPTA:1,2013-02-05T02:00:00Z,30.2791,-87.5561,16.75,1111122 
DISL,ioos:station:DISL:PPTA:1,2013-02-05T02:30:00Z,30.2791,-87.5561,16.82,1111122 
DISL,ioos:station:DISL:PPTA:1,2013-02-05T03:00:00Z,30.2791,-87.5561,16.95,1111122 
DISL,ioos:station:DISL:PPTA:1,2013-02-05T03:30:00Z,30.2791,-87.5561,16.88,1111122 
DISL,ioos:station:DISL:PPTA:1,2013-02-05T04:00:00Z,30.2791,-87.5561,16.99,1111122 
DISL,ioos:station:DISL:PPTA:1,2013-02-05T04:30:00Z,30.2791,-87.5561,16.88,1111122 
DISL,ioos:station:DISL:PPTA:1,2013-02-05T05:00:00Z,30.2791,-87.5561,16.95,1111122 
DISL,ioos:station:DISL:PPTA:1,2013-02-05T05:30:00Z,30.2791,-87.5561,16.65,1111122 
DISL,ioos:station:DISL:PPTA:1,2013-02-05T06:00:00Z,30.2791,-87.5561,16.51,1111122 
DISL,ioos:station:DISL:PPTA:1,2013-02-05T06:30:00Z,30.2791,-87.5561,16.13,1111122 
DISL,ioos:station:DISL:PPTA:1,2013-02-05T07:00:00Z,30.2791,-87.5561,15.31,1111122 
DISL,ioos:station:DISL:PPTA:1,2013-02-05T07:30:00Z,30.2791,-87.5561,14.81,1111122 
DISL,ioos:station:DISL:PPTA:1,2013-02-05T08:00:00Z,30.2791,-87.5561,14.51,1111122 
DISL,ioos:station:DISL:PPTA:1,2013-02-05T08:30:00Z,30.2791,-87.5561,14.61,1111122 
DISL,ioos:station:DISL:PPTA:1,2013-02-05T09:00:00Z,30.2791,-87.5561,14.82,1111122 
DISL,ioos:station:DISL:PPTA:1,2013-02-05T09:30:00Z,30.2791,-87.5561,14.68,1111122 
DISL,ioos:station:DISL:PPTA:1,2013-02-05T10:00:00Z,30.2791,-87.5561,14.51,1111122 
DISL,ioos:station:DISL:PPTA:1,2013-02-05T10:30:00Z,30.2791,-87.5561,14.31,1111122 
DISL,ioos:station:DISL:PPTA:1,2013-02-05T11:00:00Z,30.2791,-87.5561,13.69,1111122 
DISL,ioos:station:DISL:PPTA:1,2013-02-05T11:30:00Z,30.2791,-87.5561,13.49,1111122 
DISL,ioos:station:DISL:PPTA:1,2013-02-05T12:00:00Z,30.2791,-87.5561,14.01,1111122 
DISL,ioos:station:DISL:PPTA:1,2013-02-05T12:30:00Z,30.2791,-87.5561,14.45,1111122 
DISL,ioos:station:DISL:PPTA:1,2013-02-05T13:00:00Z,30.2791,-87.5561,15.02,1111122 
DISL,ioos:station:DISL:PPTA:1,2013-02-05T13:30:00Z,30.2791,-87.5561,15.5,1111122 
DISL,ioos:station:DISL:PPTA:1,2013-02-05T14:00:00Z,30.2791,-87.5561,15.98,1111122 
DISL,ioos:station:DISL:PPTA:1,2013-02-05T14:30:00Z,30.2791,-87.5561,16.18,1111122 
DISL,ioos:station:DISL:PPTA:1,2013-02-05T15:00:00Z,30.2791,-87.5561,16.3,1111122 
DISL,ioos:station:DISL:PPTA:1,2013-02-05T15:30:00Z,30.2791,-87.5561,16.71,1111122 
DISL,ioos:station:DISL:PPTA:1,2013-02-05T16:00:00Z,30.2791,-87.5561,16.82,1111122 
DISL,ioos:station:DISL:PPTA:1,2013-02-05T16:30:00Z,30.2791,-87.5561,17.15,1111122 
DISL,ioos:station:DISL:PPTA:1,2013-02-05T17:00:00Z,30.2791,-87.5561,17.59,1111122 
DISL,ioos:station:DISL:PPTA:1,2013-02-05T17:30:00Z,30.2791,-87.5561,17.68,1111122 
DISL,ioos:station:DISL:PPTA:1,2013-02-05T18:00:00Z,30.2791,-87.5561,17.62,1111122 
DISL,ioos:station:DISL:PPTA:1,2013-02-05T18:30:00Z,30.2791,-87.5561,17.65,1111122 
DISL,ioos:station:DISL:PPTA:1,2013-02-05T19:00:00Z,30.2791,-87.5561,17.51,1111122 
DISL,ioos:station:DISL:PPTA:1,2013-02-05T19:30:00Z,30.2791,-87.5561,17.55,1111122 
DISL,ioos:station:DISL:PPTA:1,2013-02-05T20:00:00Z,30.2791,-87.5561,17.72,1111122 
DISL,ioos:station:DISL:PPTA:1,2013-02-05T20:30:00Z,30.2791,-87.5561,17.89,1111122 
DISL,ioos:station:DISL:PPTA:1,2013-02-05T21:00:00Z,30.2791,-87.5561,18.03,1111122 
DISL,ioos:station:DISL:PPTA:1,2013-02-05T21:30:00Z,30.2791,-87.5561,18.37,1111122 
DISL,ioos:station:DISL:PPTA:1,2013-02-05T22:00:00Z,30.2791,-87.5561,18.23,1111122 
DISL,ioos:station:DISL:PPTA:1,2013-02-05T22:30:00Z,30.2791,-87.5561,18.44,1111122 
DISL,ioos:station:DISL:PPTA:1,2013-02-05T23:00:00Z,30.2791,-87.5561,18.3,1111122 
DISL,ioos:station:DISL:PPTA:1,2013-02-05T23:30:00Z,30.2791,-87.5561,17.48,1111122 
DISL,ioos:station:DISL:PPTA:1,2013-02-06T00:00:00Z,30.2791,-87.5561,17.08,1111122 
DISL,ioos:station:DISL:PPTA:1,2013-02-06T00:30:00Z,30.2791,-87.5561,17.01,1111122 
DISL,ioos:station:DISL:PPTA:1,2013-02-06T01:00:00Z,30.2791,-87.5561,16.71,1111122 
DISL,ioos:station:DISL:PPTA:1,2013-02-06T01:30:00Z,30.2791,-87.5561,16.27,1111122 
DISL,ioos:station:DISL:PPTA:1,2013-02-06T02:00:00Z,30.2791,-87.5561,16.0,1111122 
DISL,ioos:station:DISL:PPTA:1,2013-02-06T02:30:00Z,30.2791,-87.5561,15.7,1111122 
DISL,ioos:station:DISL:PPTA:1,2013-02-06T03:00:00Z,30.2791,-87.5561,15.94,1111122 
DISL,ioos:station:DISL:PPTA:1,2013-02-06T03:30:00Z,30.2791,-87.5561,15.8,1111122 
DISL,ioos:station:DISL:PPTA:1,2013-02-06T04:00:00Z,30.2791,-87.5561,15.77,1111122 
DISL,ioos:station:DISL:PPTA:1,2013-02-06T04:30:00Z,30.2791,-87.5561,15.87,1111122 
DISL,ioos:station:DISL:PPTA:1,2013-02-06T05:00:00Z,30.2791,-87.5561,15.67,1111122 
DISL,ioos:station:DISL:PPTA:1,2013-02-06T05:30:00Z,30.2791,-87.5561,15.59,1111122 
DISL,ioos:station:DISL:PPTA:1,2013-02-06T06:00:00Z,30.2791,-87.5561,15.46,1111122 
DISL,ioos:station:DISL:PPTA:1,2013-02-06T06:30:00Z,30.2791,-87.5561,15.25,1111122 
DISL,ioos:station:DISL:PPTA:1,2013-02-06T07:00:00Z,30.2791,-87.5561,14.95,1111122 
DISL,ioos:station:DISL:PPTA:1,2013-02-06T07:30:00Z,30.2791,-87.5561,14.68,1111122 
DISL,ioos:station:DISL:PPTA:1,2013-02-06T08:00:00Z,30.2791,-87.5561,14.54,1111122 
DISL,ioos:station:DISL:PPTA:1,2013-02-06T08:30:00Z,30.2791,-87.5561,14.41,1111122 
DISL,ioos:station:DISL:PPTA:1,2013-02-06T09:00:00Z,30.2791,-87.5561,14.0,1111122 
DISL,ioos:station:DISL:PPTA:1,2013-02-06T09:30:00Z,30.2791,-87.5561,14.07,1111122 
DISL,ioos:station:DISL:PPTA:1,2013-02-06T10:00:00Z,30.2791,-87.5561,14.1,1111122 
DISL,ioos:station:DISL:PPTA:1,2013-02-06T10:30:00Z,30.2791,-87.5561,14.07,1111122 
DISL,ioos:station:DISL:PPTA:1,2013-02-06T11:00:00Z,30.2791,-87.5561,14.03,1111122 
DISL,ioos:station:DISL:PPTA:1,2013-02-06T11:30:00Z,30.2791,-87.5561,13.79,1111122 
DISL,ioos:station:DISL:PPTA:1,2013-02-06T12:00:00Z,30.2791,-87.5561,13.76,1111122 
DISL,ioos:station:DISL:PPTA:1,2013-02-06T12:30:00Z,30.2791,-87.5561,13.59,1111122 
DISL,ioos:station:DISL:PPTA:1,2013-02-06T13:00:00Z,30.2791,-87.5561,13.35,1111122 
DISL,ioos:station:DISL:PPTA:1,2013-02-06T13:30:00Z,30.2791,-87.5561,13.49,1111122 
DISL,ioos:station:DISL:PPTA:1,2013-02-06T14:00:00Z,30.2791,-87.5561,13.46,1111122 
DISL,ioos:station:DISL:PPTA:1,2013-02-06T14:30:00Z,30.2791,-87.5561,13.43,1111122 
DISL,ioos:station:DISL:PPTA:1,2013-02-06T15:00:00Z,30.2791,-87.5561,13.76,1111122 
DISL,ioos:station:DISL:PPTA:1,2013-02-06T15:30:00Z,30.2791,-87.5561,13.9,1111122 
DISL,ioos:station:DISL:PPTA:1,2013-02-06T16:00:00Z,30.2791,-87.5561,13.96,1111122 
DISL,ioos:station:DISL:PPTA:1,2013-02-06T16:30:00Z,30.2791,-87.5561,14.2,1111122 
DISL,ioos:station:DISL:PPTA:1,2013-02-06T17:00:00Z,30.2791,-87.5561,14.27,1111122 
DISL,ioos:station:DISL:PPTA:1,2013-02-06T17:30:00Z,30.2791,-87.5561,14.44,1111122 
DISL,ioos:station:DISL:PPTA:1,2013-02-06T18:00:00Z,30.2791,-87.5561,14.98,1111122 
DISL,ioos:station:DISL:PPTA:1,2013-02-06T18:30:00Z,30.2791,-87.5561,15.49,1111122 
DISL,ioos:station:DISL:PPTA:1,2013-02-06T19:00:00Z,30.2791,-87.5561,15.93,1111122 
DISL,ioos:station:DISL:PPTA:1,2013-02-06T19:30:00Z,30.2791,-87.5561,16.41,1111122 
DISL,ioos:station:DISL:PPTA:1,2013-02-06T20:00:00Z,30.2791,-87.5561,16.88,1111122 
DISL,ioos:station:DISL:PPTA:1,2013-02-06T20:30:00Z,30.2791,-87.5561,17.05,1111122 
DISL,ioos:station:DISL:PPTA:1,2013-02-06T21:00:00Z,30.2791,-87.5561,17.33,1111122 
DISL,ioos:station:DISL:PPTA:1,2013-02-06T21:30:00Z,30.2791,-87.5561,17.64,1111122 
DISL,ioos:station:DISL:PPTA:1,2013-02-06T22:00:00Z,30.2791,-87.5561,17.84,1111122 
DISL,ioos:station:DISL:PPTA:1,2013-02-06T22:30:00Z,30.2791,-87.5561,17.8,1111122 
DISL,ioos:station:DISL:PPTA:1,2013-02-06T23:00:00Z,30.2791,-87.5561,17.66,1111122 
DISL,ioos:station:DISL:PPTA:1,2013-02-06T23:30:00Z,30.2791,-87.5561,17.42,1111122 